When you browse on this site, cookies collect data to enhance your experience and personalize the content and advertising you see.
Visit our Privacy Policy to learn more. By continuing to use the site, you agree to this use of cookies and data.
  • In France
  • List of Countries
  • For 7 days
  • Water Temperature
  • Satellite Maps
  • Weather Map
  • Weather Widgets
  • user-avatar
    Login

    Hourly Weather Uige

    Today, 19 January, Saturday

    Time Temperature Precipitation Wind Pressure Humidity
    00:00 +22°C° 0.6 mm 1 mps 692 mmHg 99%
    01:00 +22°C° 0 mm 1 mps 692 mmHg 99%
    02:00 +22°C° 0.2 mm 1 mps 692 mmHg 99%
    03:00 +22°C° 0.2 mm 1 mps 692 mmHg 99%
    04:00 +21°C° 0.2 mm 1 mps 691 mmHg 99%
    05:00 +22°C° 0 mm 1 mps 692 mmHg 99%
    06:00 +20°C° 0 mm 0 mps 692 mmHg 98%
    07:00 +20°C° 0 mm 0 mps 692 mmHg 98%
    08:00 +23°C° 0 mm 1 mps 692 mmHg 90%
    09:00 +25°C° 0 mm 1 mps 693 mmHg 82%
    10:00 +26°C° 0 mm 1 mps 693 mmHg 75%
    11:00 +26°C° 0.8 mm 1 mps 693 mmHg 79%
    12:00 +26°C° 0.8 mm 2 mps 693 mmHg 83%
    13:00 +26°C° 0.8 mm 2 mps 692 mmHg 86%
    14:00 +26°C° 1.2 mm 2 mps 692 mmHg 89%
    15:00 +25°C° 1.2 mm 1 mps 691 mmHg 92%
    16:00 +24°C° 1.2 mm 1 mps 691 mmHg 94%
    17:00 +24°C° 0.5 mm 1 mps 691 mmHg 96%
    18:00 +23°C° 0.5 mm 1 mps 691 mmHg 97%
    19:00 +21°C° 0.5 mm 0 mps 691 mmHg 98%
    20:00 +20°C° 0 mm 0 mps 692 mmHg 98%
    21:00 +20°C° 0 mm 0 mps 692 mmHg 98%
    22:00 +20°C° 0 mm 0 mps 692 mmHg 97%
    23:00 +19°C° 0 mm 0 mps 692 mmHg 97%

    Tomorrow, 20 January, Sunday

    Time Temperature Precipitation Wind Pressure Humidity
    00:00 +19°C° 0 mm 0 mps 692 mmHg 97%
    01:00 +19°C° 0 mm 0 mps 692 mmHg 97%
    02:00 +18°C° 0 mm 0 mps 691 mmHg 97%
    03:00 +18°C° 0 mm 0 mps 691 mmHg 97%
    04:00 +18°C° 0 mm 0 mps 691 mmHg 97%
    05:00 +19°C° 0 mm 0 mps 691 mmHg 96%
    06:00 +19°C° 0 mm 0 mps 692 mmHg 96%
    07:00 +19°C° 0 mm 0 mps 692 mmHg 95%
    08:00 +24°C° 0.1 mm 1 mps 693 mmHg 86%
    09:00 +26°C° 0.1 mm 1 mps 693 mmHg 76%
    10:00 +28°C° 0.1 mm 2 mps 694 mmHg 66%
    11:00 +29°C° 0.1 mm 2 mps 693 mmHg 61%
    12:00 +30°C° 0.1 mm 3 mps 693 mmHg 57%
    13:00 +31°C° 0.1 mm 3 mps 692 mmHg 53%
    14:00 +29°C° 0.5 mm 3 mps 692 mmHg 61%
    15:00 +28°C° 0.5 mm 3 mps 691 mmHg 70%
    16:00 +27°C° 0.5 mm 2 mps 690 mmHg 79%
    17:00 +26°C° 0.3 mm 2 mps 690 mmHg 85%
    18:00 +24°C° 0.3 mm 1 mps 691 mmHg 91%
    19:00 +23°C° 0.3 mm 1 mps 691 mmHg 98%
    20:00 +20°C° 0 mm 0 mps 691 mmHg 98%
    21:00 +20°C° 0 mm 0 mps 692 mmHg 97%
    22:00 +19°C° 0 mm 0 mps 693 mmHg 97%
    23:00 +19°C° 0 mm 0 mps 692 mmHg 97%

    Day after tomorrow, 21 January, Monday

    Time Temperature Precipitation Wind Pressure Humidity
    00:00 +19°C° 0 mm 0 mps 692 mmHg 97%
    01:00 +19°C° 0 mm 0 mps 692 mmHg 98%
    02:00 +18°C° 0 mm 0 mps 691 mmHg 98%
    03:00 +18°C° 0 mm 0 mps 691 mmHg 98%
    04:00 +18°C° 0 mm 0 mps 691 mmHg 99%
    05:00 +18°C° 0 mm 0 mps 691 mmHg 98%
    06:00 +19°C° 0 mm 0 mps 692 mmHg 98%
    07:00 +19°C° 0 mm 0 mps 692 mmHg 97%
    08:00 +24°C° 0 mm 1 mps 693 mmHg 86%
    09:00 +26°C° 0 mm 1 mps 693 mmHg 76%
    10:00 +28°C° 0 mm 1 mps 694 mmHg 65%
    11:00 +29°C° 0.2 mm 2 mps 693 mmHg 62%
    12:00 +30°C° 0.2 mm 2 mps 693 mmHg 58%
    13:00 +31°C° 0.2 mm 2 mps 692 mmHg 55%
    14:00 +30°C° 0.5 mm 2 mps 691 mmHg 62%
    15:00 +29°C° 0.5 mm 2 mps 691 mmHg 70%
    16:00 +29°C° 0.5 mm 2 mps 690 mmHg 77%
    17:00 +27°C° 0.6 mm 2 mps 690 mmHg 83%
    18:00 +25°C° 0.6 mm 1 mps 690 mmHg 89%
    19:00 +23°C° 0.6 mm 1 mps 690 mmHg 96%
    20:00 +22°C° 0.2 mm 1 mps 691 mmHg 96%
    21:00 +22°C° 0.2 mm 1 mps 692 mmHg 97%
    22:00 +22°C° 0.2 mm 1 mps 692 mmHg 98%
    23:00 +21°C° 0 mm 1 mps 692 mmHg 98%

    22 January, Tuesday

    Time Temperature Precipitation Wind Pressure Humidity
    00:00 +21°C° 0 mm 1 mps 692 mmHg 98%
    01:00 +21°C° 0 mm 1 mps 691 mmHg 99%
    02:00 +21°C° 0 mm 1 mps 691 mmHg 99%
    03:00 +21°C° 0 mm 1 mps 691 mmHg 99%
    04:00 +21°C° 0 mm 1 mps 691 mmHg 99%
    05:00 +21°C° 0 mm 1 mps 691 mmHg 98%
    06:00 +21°C° 0 mm 1 mps 691 mmHg 98%
    07:00 +21°C° 0 mm 1 mps 692 mmHg 97%
    08:00 +24°C° 0 mm 1 mps 692 mmHg 84%
    09:00 +26°C° 0 mm 1 mps 693 mmHg 71%
    10:00 +29°C° 0 mm 2 mps 694 mmHg 58%
    11:00 +30°C° 0.1 mm 2 mps 693 mmHg 56%
    12:00 +31°C° 0.1 mm 2 mps 692 mmHg 54%
    13:00 +32°C° 0.1 mm 2 mps 691 mmHg 51%
    14:00 +30°C° 0.8 mm 2 mps 691 mmHg 62%
    15:00 +28°C° 0.8 mm 2 mps 690 mmHg 72%
    16:00 +27°C° 0.8 mm 1 mps 689 mmHg 82%
    17:00 +25°C° 1.4 mm 1 mps 690 mmHg 86%
    18:00 +24°C° 1.4 mm 2 mps 690 mmHg 91%
    19:00 +23°C° 1.4 mm 2 mps 690 mmHg 95%
    20:00 +21°C° 0.1 mm 2 mps 691 mmHg 96%
    21:00 +22°C° 0.1 mm 1 mps 691 mmHg 97%
    22:00 +21°C° 0.1 mm 1 mps 692 mmHg 98%
    23:00 +21°C° 0 mm 1 mps 691 mmHg 98%

    23 January, Wednesday

    Time Temperature Precipitation Wind Pressure Humidity
    00:00 +21°C° 0 mm 1 mps 691 mmHg 99%
    01:00 +21°C° 0 mm 1 mps 691 mmHg 99%
    02:00 +20°C° 0 mm 1 mps 691 mmHg 98%
    03:00 +20°C° 0 mm 1 mps 690 mmHg 98%
    04:00 +20°C° 0 mm 1 mps 690 mmHg 97%
    05:00 +20°C° 0 mm 1 mps 691 mmHg 97%
    06:00 +20°C° 0 mm 1 mps 691 mmHg 97%
    07:00 +21°C° 0 mm 1 mps 692 mmHg 96%
    08:00 +22°C° 0 mm 1 mps 692 mmHg 90%
    09:00 +23°C° 0 mm 1 mps 692 mmHg 83%
    10:00 +25°C° 0 mm 1 mps 693 mmHg 76%
    11:00 +27°C° 0 mm 2 mps 692 mmHg 67%
    12:00 +28°C° 0 mm 2 mps 692 mmHg 59%
    13:00 +30°C° 0 mm 2 mps 691 mmHg 51%
    14:00 +29°C° 0 mm 2 mps 691 mmHg 54%
    15:00 +29°C° 0 mm 2 mps 690 mmHg 58%
    16:00 +29°C° 0 mm 2 mps 690 mmHg 61%
    17:00 +27°C° 0 mm 2 mps 690 mmHg 68%
    18:00 +25°C° 0 mm 1 mps 690 mmHg 76%
    19:00 +23°C° 0 mm 1 mps 690 mmHg 83%
    20:00 +21°C° 0 mm 0 mps 690 mmHg 86%
    21:00 +20°C° 0 mm 0 mps 691 mmHg 89%
    22:00 +19°C° 0 mm 0 mps 691 mmHg 92%
    23:00 +19°C° 0 mm 0 mps 691 mmHg 94%

    24 January, Thursday

    Time Temperature Precipitation Wind Pressure Humidity
    00:00 +18°C° 0 mm 0 mps 690 mmHg 96%
    01:00 +18°C° 0 mm 0 mps 690 mmHg 98%
    02:00 +20°C° 0 mm 1 mps 690 mmHg 98%
    03:00 +20°C° 0 mm 1 mps 690 mmHg 98%
    04:00 +19°C° 0 mm 1 mps 689 mmHg 98%
    05:00 +19°C° 0 mm 1 mps 690 mmHg 96%
    06:00 +20°C° 0 mm 1 mps 690 mmHg 94%
    07:00 +20°C° 0 mm 1 mps 691 mmHg 93%
    08:00 +23°C° 0 mm 1 mps 691 mmHg 78%
    09:00 +26°C° 0 mm 1 mps 692 mmHg 64%
    10:00 +29°C° 0 mm 1 mps 692 mmHg 50%
    11:00 +30°C° 0 mm 2 mps 692 mmHg 47%
    12:00 +31°C° 0 mm 2 mps 691 mmHg 43%
    13:00 +32°C° 0 mm 2 mps 690 mmHg 40%
    14:00 +32°C° 0 mm 2 mps 690 mmHg 43%
    15:00 +31°C° 0 mm 2 mps 689 mmHg 46%
    16:00 +31°C° 0 mm 2 mps 689 mmHg 48%
    17:00 +29°C° 0 mm 2 mps 689 mmHg 58%
    18:00 +26°C° 0 mm 1 mps 689 mmHg 68%
    19:00 +24°C° 0 mm 1 mps 689 mmHg 78%
    20:00 +23°C° 0 mm 1 mps 690 mmHg 81%
    21:00 +20°C° 0 mm 0 mps 690 mmHg 83%
    22:00 +20°C° 0 mm 0 mps 691 mmHg 86%
    23:00 +21°C° 0 mm 1 mps 690 mmHg 89%
    Show more